DELTA 1 DEB, 7176

Orbit data source: Space-Track

DELTA 1 DEB, 7176 is space debris in SSO originally from a launch on Tue, 06 Nov 1973 UTC launched from the Air Force Western Test Range (AFWTR). Debris objects in space refer to the collection of defunct objects orbiting the Earth. Examples of debris include non-operational satellites, rocket bodies, and fragments generated from explosions, collisions, or faulty payload assembly.

Loading next visibility...
Identifier
7176, 1973-086EN
Orbit
SSO
Country
Flag of USUS
Related business
Manufacturer
Unknown
Mission
Spacecraft
Bus & Motor
Unknown
Mass
Unknown
Launch date (UTC)
1973-11-06 (52 years ago)
Launch vehicle
Unknown
Launch site
Air Force Western Test Range (AFWTR)
Object type
Payload
Rocket body
Debris
Shape & HBR
Unknown shape, 0.1 m
Radar Cross Section
Small (<0.1 m²)

Expand to show TLE details & history
Last TLE update: 18 hours ago

TLE from 18 hours ago
0 DELTA 1 DEB
1 07176U 73086EN  25299.67958881  .00000082  00000-0  57776-3 0  9999
2 07176 102.2158 207.9447 0176555 105.4673 325.4982 12.75699989417820
Epoch: 2025-10-26T16:18Z
TLE epoch observation values (Epoch: 2025-10-26T16:18:36.473Z)
Latitude
66.60988°
Longitude
-101.86772°
Altitude
1,258.339 km
Speed
7.284 km/s
True Right ascension
11h 52m 18s
True Declination
66° 29' 33"
Sunlit
Object was in daylight at epoch
Visualization orbit readout
Latitude
Unknown
Longitude
Unknown
Altitude
Unknown
Speed
Unknown
Apparent Right ascension
Unknown
Apparent Declination
Unknown
Sunlit
N/A
Visualization observer readout
Local Sidereal Time
05:54:14
Azimuth
Unknown
Elevation
Unknown
Doppler factor
Unknown
Orbital elements
Apogee altitude
1,492.904 km
Perigee altitude
1,219.791 km
Semi-major axis
7,734.485 km
Eccentricity
0.01766
Inclination
102.2158°
RAAN
207.9447°
Arg. of periapsis
105.4673°
True anomaly
324.33108°
Mean anomaly
325.4982°
Eccentric anomaly
324.91678°
Mean motion
3.19077 °/min
Orbital period
112.83 mins
BSTAR
0.00057776
Loading maneuver chart data...
Computing Atmospheric mass density...
Loading historical data...
Loading historical data...
Loading historical data...
Loading historical data...
Loading historical data...
Loading historical data...
Loading historical data...

Documentation

Showing up to 5 results
|